Location: Beuvrequen
(50.8014°N, 1.6652°E)
Time: 00:11:39
(UTC+00:00)

CZ-4C DEB - Visible Passes

Search period start: 11 August 2022 00:00
Search period end: 21 August 2022 00:00
Orbit: 595 x 845 km, 97.9° (Epoch: 10 August)

Date Brightness Start Highest point End Pass type
(mag) Time Alt. Az. Time Alt. Az. Time Alt. Az.
11 Aug ? 00:39:39 43° W 00:39:39 43° W 00:44:07 10° NNW visible
11 Aug ? 22:10:40 10° ENE 22:12:24 12° NE 22:14:11 10° NNE visible
11 Aug ? 23:49:11 64° ESE 23:49:34 68° ENE 23:54:19 10° N visible
12 Aug ? 01:28:26 17° W 01:28:26 17° W 01:31:20 10° NW visible
12 Aug ? 22:58:43 24° E 22:59:56 27° ENE 23:03:56 10° N visible
13 Aug ? 00:37:58 45° W 00:37:58 45° W 00:42:27 10° NNW visible
13 Aug ? 22:08:54 10° ENE 22:10:40 12° NE 22:12:29 10° NNE visible
13 Aug ? 23:47:30 64° E 23:47:48 66° ENE 23:52:37 10° N visible
14 Aug ? 01:26:45 18° W 01:26:45 18° W 01:29:44 10° NW visible
14 Aug ? 22:57:03 24° E 22:58:11 27° ENE 23:02:14 10° N visible
15 Aug ? 00:36:18 46° W 00:36:18 46° W 00:40:46 10° NNW visible
15 Aug ? 22:07:08 10° ENE 22:08:56 12° NE 22:10:48 10° NNE visible
15 Aug ? 23:45:50 64° E 23:46:03 65° ENE 23:50:56 10° N visible
16 Aug ? 01:25:05 18° W 01:25:05 18° W 01:28:06 10° NW visible
16 Aug ? 22:55:22 24° E 22:56:26 26° ENE 23:00:32 10° N visible
17 Aug ? 00:34:37 48° W 00:34:37 48° W 00:39:06 10° NNW visible
17 Aug ? 22:05:21 10° ENE 22:07:12 12° NE 22:09:06 10° NNE visible
17 Aug ? 23:44:09 63° E 23:44:17 63° ENE 23:49:14 10° N visible
18 Aug ? 01:23:25 19° W 01:23:25 19° W 01:26:29 10° NW visible
18 Aug ? 22:53:42 24° E 22:54:41 26° ENE 22:58:50 10° N visible
19 Aug ? 00:32:57 49° W 00:32:57 49° W 00:37:24 10° NNW visible
19 Aug ? 22:03:35 10° ENE 22:05:28 12° NE 22:07:23 10° NNE visible
19 Aug ? 23:42:29 62° ENE 23:42:31 62° ENE 23:47:31 10° N visible
20 Aug ? 01:21:44 20° WNW 01:21:44 20° WNW 01:24:51 10° NW visible
20 Aug ? 22:52:02 25° ENE 22:52:56 26° ENE 22:57:07 10° N visible
